Regional Weather Roundup
Issued by NWS Mt. Holly, NJ

Home | Current Version | Previous Version | Text Only | Print | Product List | Glossary On
Versions: 1 2 3 4 5 6 7 8 9 10 11 12 13 14 15 16 17 18 19 20 21 22 23 24 25 26 27 28 29 30 31 32 33 34 35 36 37 38 39 40 41 42 43 44 45 46 47 48 49 50
000
ASUS41 KPHI 301512
RWRPHI

REGIONAL WEATHER ROUNDUP
NATIONAL WEATHER SERVICE MOUNT HOLLY NJ
1100 AM EDT TUE JUN 30 2015

NOTE:  "FAIR" INDICATES FEW OR NO CLOUDS BELOW 12,000 FEET WITH NO
SIGNIFICANT WEATHER AND/OR OBSTRUCTIONS TO VISIBILITY.

 * = STATION DOES NOT REPORT PRECIPITATION (E.G. RAIN, SNOW, ETC.)
        OR FOG.

NJZ015>026-301600-
SOUTHERN NEW JERSEY

CITY           SKY/WX    TMP DP  RH WIND       PRES   REMARKS
POMONA         PTSUNNY   79  65  62 S13G24    29.98S
RIO GRANDE*    SUNNY     79  70  73 S16G25    29.98S
MILLVILLE      CLOUDY    78  67  68 S10G21    29.96S
WRIGHTSTOWN    SUNNY     81  65  58 S12G18    29.93F
MOUNT HOLLY    MOSUNNY   81  66  60 SE8       29.94F
TRENTON        PTSUNNY   79  63  57 S13       29.94F

$$
NJZ001>014-301600-
NORTHERN NEW JERSEY

CITY           SKY/WX    TMP DP  RH WIND       PRES   REMARKS
SUSSEX         CLOUDY    71  63  75 N5        29.95F
ANDOVER*         N/A     69  61  75 VRB5      29.96S
MORRISTOWN     CLOUDY    81  64  57 S6        29.96F
NEWARK         PTSUNNY   80  62  54 SE6       29.96S
TETERBORO      MOSUNNY   80  55  42 S13       29.95F
CALDWELL       PTSUNNY   78  55  44 SE13G18   29.95F
SOMERVILLE     PTSUNNY   77  62  59 SE7       29.93F
ALLAIRE*       PTSUNNY   79  57  47 S14       29.98S
TOMS RIVER*    PTSUNNY   81  61  50 S10G17    29.97F

$$
PAZ043-044-047-054-055-060>062-066>071-301600-
EASTERN PENNSYLVANIA

CITY           SKY/WX    TMP DP  RH WIND       PRES   REMARKS
PHILADELPHIA   PTSUNNY   82  63  52 S16       29.93F
NORTH PHILA    MOSUNNY   82  62  50 S7        29.95F
BLUE BELL      PTSUNNY   81  68  65 S9G17     29.93S
DOYLESTOWN     MOSUNNY   76  64  66 S10G17    29.93F
QUAKERTOWN*    CLOUDY    73  66  78 S5        29.95S
POTTSTOWN      PTSUNNY   76  69  79 VRB3      29.94F
LANCASTER      CLOUDY    73  69  87 S6        29.92S
COATESVILLE    PTSUNNY   73  68  83 S6        29.95R
READING        PTSUNNY   72  66  81 S5        29.92R
ALLENTOWN      LGT RAIN  73  63  70 SE6       29.93F
MOUNT POCONO   LGT RAIN  61  59  93 SE7       29.99R FOG
HAZLETON       CLOUDY    64  63  94 S8        29.97R FOG
WILKES BARRE   CLOUDY    70  62  76 CALM      29.93R

$$
DEZALL-MDZ008-012-015-019-020-301600-
DELAWARE AND EASTERN MARYLAND

CITY           SKY/WX    TMP DP  RH WIND       PRES   REMARKS
WILMINGTON     MOSUNNY   79  69  71 S15       29.93F
DOVER          MOSUNNY   83  68  61 S16       29.92F
GEORGETOWN     SUNNY     83  67  58 S16G24    29.95F
EASTON         PTSUNNY   84  72  65 S12G22    29.95F
ABERDEEN       PTSUNNY   79  73  83 S12       29.94S
PATUXENT       MOSUNNY   81  74  79 SE15G23   29.91F
OCEAN CITY     NOT AVBL
WALLOPS ISLAND MOSUNNY   80  74  81 S18       29.97F
CAMBRIDGE      MOSUNNY   81  68  65 SE15G25   29.92F
SALISBURY      SUNNY     82  64  54 S18G24    29.95F

$$
PAZ001-021-NYZ056-072-MDZ011-DCZ001-301600-
OTHER NEARBY LOCATIONS

CITY           SKY/WX    TMP DP  RH WIND       PRES   REMARKS
HARRISBURG     CLOUDY    76  67  73 S9        29.89F
STATE COLLEGE  CLOUDY    68  63  83 S5        29.90S
WILLIAMSPORT   CLOUDY    71  64  78 SE5       29.87S
BINGHAMTON     CLOUDY    61  60  97 SE12      29.92F FOG
NEW YORK CITY  MOSUNNY   78  60  53 VRB3G21   29.99F
BALTIMORE      CLOUDY    76  72  87 SE5       29.89F
WASHINGTON DC  PTSUNNY   78  73  84 SW6       29.91F

$$


USA.gov is the U.S. government's official web portal to all federal, state and local government web resources and services.